Find Starlink 30839

NORAD ID: 58209 Int'l Des: 2023-170 Owner: SPXS Country: US Constellation: starlink operational
LEOCIRCULAR

Live-Position

3D-Globus wird geladen...

Über Starlink 30839

Beschreibung wird geladen...

Nächste Überflüge

Passes for default location (London). Set your location on the main map for personalized predictions.

Höhenverlauf

Loading altitude history...

Zweizeiliger Elementsatz

1 58209U 23170D 26121.39445156 .00004256 00000-0 16403-3 0 9990
2 58209 42.9986 256.2610 0001015 272.7470 87.3265 15.27589474138366
Epoch: 1. Mai 2026 • Age: 9 hours

Aktueller Status

Höhe 482.3 km
Geschwindigkeit 7.63 km/s
Subsatellitenpunkt 13.30°N, 70.2°W
Startdatum 4. Nov. 2023
Alter 2.4 years
Typ internet

Technische Details

Klassifizierung Payload
Masse 730.00 kg
Trockenmasse 700.00 kg
Gesamtmasse 730.00 kg
Länge 0.30 m
Durchmesser 4.10 m
Spannweite 29.00 m
Form Box + pan
Hersteller SPXS
Bus-Typ Starlink V2M
Phasenstatus In Orbit
Besitzer/Staat SPXS/US

Most Searched